Список аэропортов
Фактическая погода:

21 января, 12:50
Температура: +15°C (+14.1*)
Ветер: южный 4 м/с
Давление: *757 мм
неб. 600 м
Время (МСК)Темп. СВетерВлажностьДавлениеОблачностьОсадки
09:00+11Ю, 2 м/с88%1011 гПаоблачно
10:00+13Ю, 3 м/с79%1010 гПаоблачно
11:00+14Ю, 5 м/с67%1010 гПаоблачно
12:00+14Ю, 6 м/с70%1009 гПаоблачно
13:00+14Ю, 7 м/с70%1008 гПаоблачно
14:00+15Ю, 7 м/с63%1006 гПаоблачно
15:00+15Ю, 6 м/с60%1005 гПаоблачно
16:00+15Ю, 7 м/с56%1004 гПас прояснениями
17:00+15Ю, 7 м/с61%1004 гПас прояснениями
18:00+14Ю, 7 м/с66%1003 гПамалооблачно
19:00+14Ю, 6 м/с67%1002 гПас прояснениями
20:00+13ЮЗ, 6 м/с68%1002 гПаоблачно
21:00+13ЮЗ, 6 м/с77%1001 гПаоблачнодождь
22:00+12ЮЗ, 5 м/с81%1000 гПаоблачнодождь
23:00+13ЮЗ, 5 м/с82%1000 гПаоблачнодождь
22 января
00:00+12ЮЗ, 4 м/с83%999 гПамалооблачно
01:00+11З, 3 м/с79%998 гПаясно
02:00+10ЮЗ, 3 м/с81%998 гПас прояснениями
03:00+11ЮЗ, 4 м/с82%997 гПаоблачно
04:00+12ЮЗ, 5 м/с78%996 гПаоблачнодождь
05:00+12ЮЗ, 5 м/с84%995 гПаоблачнодождь
06:00+12ЮЗ, 7 м/с84%995 гПаоблачнодождь
07:00+11З, 10 м/с74%994 гПамалооблачно
08:00+11З, 7 м/с74%995 гПаясно
09:00+11СЗ, 7 м/с68%996 гПаясно
10:00+10СЗ, 7 м/с67%997 гПамалооблачно
11:00+10СЗ, 8 м/с62%998 гПамалооблачно
12:00+10СЗ, 8 м/с58%999 гПамалооблачно
13:00+10СЗ, 9 м/с55%999 гПас прояснениями
14:00+10СЗ, 10 м/с54%1000 гПас прояснениями
15:00+11СЗ, 10 м/с54%1000 гПамалооблачно
16:00+10СЗ, 9 м/с53%1001 гПас прояснениями
17:00+10СЗ, 9 м/с53%1002 гПас прояснениями
18:00+10СЗ, 8 м/с53%1003 гПаоблачно
19:00+9С, 6 м/с55%1004 гПаоблачно
20:00+8С, 4 м/с59%1005 гПамалооблачно
21:00+8С, 4 м/с63%1006 гПаясно
22:00+8С, 4 м/с65%1007 гПаясно
23:00+8СЗ, 4 м/с65%1008 гПаясно
23 января
00:00+7СЗ, 4 м/с66%1009 гПаясно
01:00+7СЗ, 4 м/с68%1010 гПамалооблачно
02:00+6СЗ, 5 м/с68%1011 гПаясно
03:00+7СЗ, 6 м/с68%1011 гПаясно
04:00+7С, 6 м/с69%1011 гПамалооблачно
05:00+7СЗ, 6 м/с72%1012 гПас прояснениями
06:00+7СЗ, 6 м/с73%1012 гПаоблачно
07:00+7С, 6 м/с72%1012 гПаоблачно
08:00+7С, 5 м/с73%1013 гПаоблачно
09:00+7С, 4 м/с75%1014 гПаоблачносл. дождь